Presure
168 205 213 229 236 237 227 220 256 230 216 330 308 284 262 242 251 254 254 240 233 242 245 245 233 257 262 264 290 328 433 464 463 454 471 442 324 314 324 285 261 117 236
229 237 238 243 240 227 232 253 222 279 330 294 277 259 239 253 250 239 233 236 206 231 233 237 250 240 256 265 270 302 431 476 452 512 455 463 391 320 305 316 266 259 240
231 234 237 244 290 265 237 212 302 312 273 282 266 243 251 249 236 232 222 224 221 224 219 227 230 231 240 264 255 286 315 433 465 463 445 454 428 327 216 308 334 257 240
258 290 289 264 240 216 295 327 286 261 272 259 250 230 242 229 226 227 228 215 211 209 218 228 240 254 232 247 259 266 286 337 482 486 458 519 447 324 309 300 296 310 256
251 238 223 231 339 328 299 280 306 271 251 226 239 220 224 213 217 214 216 218 216 215 235 215 219 220 234 240 246 258 274 283 330 437 472 466 447 304 305 265 289 300 275
328 328 325 318 289 286 318 268 253 246 239 214 229 199 218 213 197 199 198 220 209 208 212 209 227 224 223 222 236 241 253 247 269 315 432 416 340 273 269 282 275 283 294
303 283 264 294 254 267 263 247 241 235 231 214 216 188 204 206 210 214 209 213 210 210 196 205 216 222 225 222 226 222 233 242 254 253 273 316 295 278 273 255 237 283 272
281 297 275 256 258 246 231 232 235 220 215 202 205 206 197 214 210 201 199 210 194 203 217 219 210 205 214 223 225 217 227 229 227 239 235 252 258 263 292 319 298 267 263
269 255 253 238 235 227 230 234 213 201 206 209 206 203 213 211 206 206 194 189 183 195 195 196 197 191 208 200 206 211 224 221 217 225 229 225 235 236 241 242 252 264 392
240 232 217 227 217 184 206 203 192 200 198 195 208 201 184 189 198 201 194 195 185 177 187 195 204 184 199 211 205 202 199 207 223 218 221 220 224 227 226 241 236 247 254
208 207 212 207 199 172 191 193 198 204 192 212 176 171 208 199 207 199 151 185 197 205 207 204 205 204 204 200 199 210 168 208 160 211 212 229 210 218 218 233 228 241 247
209 190 192 207 206 207 210 192 189 183 189 192 188 201 182 194 189 186 190 198 187 139 135 191 187 188 189 185 168 193 204 202 186 205 136 213 212 217 223 217 225 237 231
194 181 189 188 184 190 200 200 199 198 206 203 183 154 147 190 191 189 190 190 188 187 184 177 178 193 201 202 205 207 204 201 205 201 206 207 203 212 214 217 224 222 231
190 188 184 175 187 185 175 183 162 173 190 185 190 190 190 189 194 198 194 185 181 181 195 194 189 191 180 177 195 198 199 194 213 202 204 206 203 213 205 210 214 218 225
134 134 168 194 179 175 185 176 180 188 184 188 185 190 199 177 175 182 181 184 190 188 168 180 194 201 207 207 181 180 202 196 185 179 194 186 205 224 224 205 205 208 239
191 172 180 190 190 187 183 195 189 162 161 190 187 187 172 184 179 186 184 189 191 165 173 191 187 182 184 216 205 125 194 179 200 220 184 196 199 195 209 220 208 206 223
182 204 199 188 182 189 186 179 193 195 191 188 188 193 188 185 182 161 183 182 172 180 196 183 185 201 192 194 203 188 202 213 195 202 203 172 206 191 214 203 184 227 207
199 204 177 165 181 195 213 189 198 199 184 189 186 174 186 185 178 182 170 196 179 158 204 174 182 170 170 182 192 209 192 183 206 199 198 206 189 216 204 224 213 202 222
157 181 186 210 213 194 185 177 179 187 180 188 187 184 181 174 179 183 186 136 131 202 185 189 204 200 202 210 174 181 182 186 205 169 203 186 181 223 224 225 236 225 220
190 196 193 205 199 198 164 185 200 183 202 164 198 198 164 162 178 158 187 140 186 185 202 179 186 202 191 209 203 188 218 214 222 215 218 224 225 228 233 245 159 224 247
187 174 178 163 173 197 185 204 165 172 157 159 173 169 192 189 123 162 198 174 177 169 176 175 196 197 205 205 203 207 209 215 216 234 228 245 248 235 270 249 245 263 196
183 181 187 170 173 198 174 173 185 159 204 197 175 184 167 164 157 181 182 169 187 178 201 196 189 206 210 213 218 220 213 223 235 243 263 270 279 314 289 231 293 246 251
173 151 190 190 190 173 150 184 184 203 182 184 177 160 192 204 167 171 205 205 190 218 220 216 198 225 224 221 218 229 231 245 256 251 255 246 265 246 248 243 243 259 286
197 185 156 196 152 182 181 160 202 198 195 200 170 174 176 207 204 211 207 217 221 225 229 232 221 231 238 238 244 273 277 282 293 247 248 248 250 183 289 251 252 302 249
207 176 192 201 206 155 172 189 210 184 220 216 229 236 232 233 238 234 245 244 239 243 235 235 244 241 256 256 296 274 268 265 249 308 321 368 293 363 384 345 301 340 333
214 214 233 236 180 157 224 230 229 230 232 238 240 242 240 250 235 255 258 269 279 273 259 257 268 270 273 264 242 261 274 264 267 375 360 296 339 340 342 345 367 321 292
Wind_Speed
73 80 82 81 78 76 73 68 61 66 67 23 16 16 18 23 17 9 12 17 25 23 29 30 34 44 43 45 64 76 52 45 38 40 49 71 74 71 77 87 90 46 89
73 73 75 76 73 69 64 59 63 49 16 11 10 11 18 6 8 11 17 16 32 26 30 32 38 41 49 50 55 70 62 29 28 25 39 49 77 70 70 76 89 93 90
72 73 72 72 57 57 59 61 35 11 12 1 2 9 3 5 12 14 15 20 19 24 26 32 35 36 44 56 47 69 76 56 22 9 24 40 60 66 50 65 66 87 86
73 68 60 57 56 58 35 17 11 13 5 5 3 10 4 11 13 13 17 16 22 27 28 33 40 48 40 50 56 56 67 80 33 9 8 15 51 58 59 58 58 71 85
61 59 57 56 23 17 11 10 12 9 7 9 2 10 6 13 13 16 19 22 24 25 33 29 34 33 47 50 54 60 65 64 79 30 11 12 38 34 44 40 48 52 78
25 20 18 14 9 8 8 9 8 7 5 9 3 21 8 9 22 21 24 22 21 23 27 27 37 37 38 37 52 53 61 51 59 67 14 6 12 13 20 32 35 46 52
9 5 4 8 6 12 15 11 8 5 6 6 7 22 14 14 16 19 19 21 20 25 25 28 31 34 40 38 43 36 46 55 57 49 50 40 18 7 11 21 28 40 49
4 7 15 12 15 13 6 3 7 1 4 13 11 12 16 14 15 18 20 21 22 24 25 29 29 28 34 41 42 33 40 42 36 48 37 40 32 24 24 10 30 34 39
15 13 17 10 10 11 12 9 3 13 9 10 13 16 15 16 17 21 22 25 32 28 29 30 30 29 29 25 28 31 37 30 24 32 33 26 33 26 22 18 18 19 38
11 7 2 9 1 15 8 11 18 13 13 15 15 17 25 22 21 20 25 26 28 35 33 35 35 35 32 35 32 28 25 26 34 23 22 20 25 26 20 27 23 25 24
6 11 3 7 14 28 19 18 17 15 18 17 33 39 17 21 21 25 38 33 33 35 37 37 39 38 39 36 39 39 38 32 39 29 26 41 19 19 19 28 24 28 28
7 17 18 12 13 14 17 21 22 26 23 24 26 21 31 26 31 32 34 34 37 48 49 41 37 36 37 38 40 36 40 37 30 34 50 35 31 33 33 25 30 33 27
16 20 18 21 23 24 23 24 24 26 22 22 32 41 44 34 36 36 37 39 40 40 43 40 40 47 49 48 48 48 47 44 43 40 42 43 38 41 40 39 41 34 38
25 25 25 26 27 29 31 33 38 37 36 37 37 37 37 38 39 39 42 45 45 48 48 50 52 52 43 44 51 53 53 46 51 49 46 44 45 49 46 43 46 46 45
45 45 37 36 35 36 39 37 39 42 44 44 41 43 37 47 48 50 51 53 52 53 46 57 55 53 52 55 49 48 54 56 44 39 49 39 51 56 56 51 49 46 62
39 36 42 46 46 45 47 47 48 42 43 49 51 50 50 55 53 56 56 58 57 47 57 59 62 57 61 58 59 50 63 43 55 61 47 59 57 52 60 60 59 56 60
41 46 48 49 46 50 53 52 56 56 54 52 58 57 59 60 62 46 63 62 57 60 62 70 65 64 64 62 57 59 67 65 63 70 69 52 68 50 68 60 48 69 60
51 52 52 47 53 55 58 59 58 59 62 66 65 55 66 67 65 65 57 66 69 49 69 68 71 57 55 66 61 68 73 54 71 65 65 74 58 76 65 73 71 62 73
47 55 56 54 57 61 60 59 60 61 65 68 71 64 69 67 71 77 76 55 58 76 80 77 75 77 77 73 61 62 61 69 78 48 75 61 51 85 83 81 78 74 76
62 64 63 62 61 63 62 67 71 71 72 60 74 74 55 55 71 54 83 57 86 87 81 67 74 81 85 81 82 81 82 82 86 86 89 90 89 90 91 87 60 81 77
69 71 71 61 69 67 71 72 62 74 60 57 74 71 78 80 50 74 83 80 79 69 74 75 91 91 88 88 89 87 88 91 93 96 86 95 93 91 90 84 83 77 65
80 80 79 73 71 75 72 78 76 59 83 81 74 84 77 73 76 88 92 72 93 85 93 91 92 95 95 97 99 97 93 97 98 96 103 95 94 79 78 74 75 78 79
83 59 84 85 87 78 62 83 82 85 84 87 85 69 91 95 68 77 96 98 93 102 104 103 97 107 107 105 100 105 103 101 101 93 90 89 85 84 82 80 81 79 74
87 81 62 90 59 92 86 60 96 92 93 97 82 86 83 101 99 102 101 104 107 109 109 108 106 108 112 112 114 119 118 113 105 89 88 89 86 53 81 81 79 70 77
100 92 93 100 102 66 97 99 107 99 109 107 112 116 111 113 115 115 121 121 118 115 111 110 114 111 119 114 106 104 100 97 92 90 75 67 77 68 62 67 73 66 67
113 107 116 117 94 81 115 117 116 117 116 120 121 120 115 123 114 123 123 127 125 124 121 118 115 112 107 101 96 96 89 88 86 62 64 73 65 65 64 62 59 63 67
Wind_Direction
270 281 282 283 287 289 292 293 296 296 296 296 293 302 313 304 303 324 350 325 311 342 351 346 326 353 351 342 360 2 342 304 274 254 240 231 233 232 229 226 232 265 240
280 283 284 286 289 290 291 293 293 298 291 288 298 313 304 297 335 317 321 348 305 344 345 345 356 349 356 359 356 8 358 335 325 263 233 226 226 226 228 227 226 229 236
282 283 285 287 291 289 290 290 291 284 280 194 115 297 289 2 317 336 319 335 339 350 343 346 353 350 356 8 356 12 16 7 333 301 232 221 215 217 237 226 222 229 234
282 286 286 284 285 286 285 279 260 274 182 123 119 298 20 333 354 352 3 323 303 309 345 353 3 9 0 5 11 11 17 20 15 17 241 203 203 211 219 224 225 225 228
279 282 283 282 268 267 261 253 171 145 129 284 127 310 350 309 349 335 340 354 350 346 2 345 355 357 8 8 11 15 18 22 24 30 61 178 195 206 220 230 232 232 229
268 263 261 258 247 234 184 154 145 144 139 294 54 288 353 332 290 296 295 348 339 346 349 345 5 2 3 4 14 16 19 16 24 30 31 128 183 227 232 234 236 236 235
274 238 227 192 198 140 133 142 146 146 107 290 327 284 301 321 339 338 327 343 332 338 314 336 350 3 11 7 12 7 18 23 23 25 32 42 35 351 274 262 262 244 242
201 166 134 135 123 127 190 191 112 343 339 286 293 318 291 333 326 312 314 335 313 327 351 353 342 339 354 6 6 2 15 19 22 22 23 24 29 32 34 291 264 267 259
129 129 122 129 99 82 60 54 300 283 289 307 309 308 323 320 320 325 312 306 295 322 320 322 323 311 338 335 345 355 3 6 8 14 17 15 14 7 353 335 333 336 272
113 116 258 119 180 267 274 279 285 282 281 283 310 302 297 292 309 319 308 311 297 291 304 315 326 304 328 340 336 332 326 338 356 354 358 356 357 357 346 344 319 320 319
260 275 248 239 269 279 278 273 285 297 288 298 288 288 306 305 313 308 290 297 313 328 330 327 328 330 332 325 323 335 298 333 295 332 331 345 317 325 315 336 318 326 321
282 289 282 280 285 290 283 280 279 279 283 289 289 296 292 296 296 297 301 311 306 285 285 315 309 311 309 306 299 314 322 319 301 321 278 323 316 320 320 303 311 323 302
290 285 290 286 286 290 289 290 290 289 284 286 290 286 286 296 298 300 300 302 303 306 305 302 306 312 314 314 313 313 313 314 314 313 316 315 307 312 308 310 313 301 309
304 298 290 290 293 295 289 297 287 290 292 294 292 292 293 294 291 293 299 302 302 302 305 305 305 306 304 302 310 308 308 304 312 309 308 307 305 309 303 303 301 302 302
278 279 289 290 290 288 289 291 293 289 292 289 289 286 279 296 301 296 298 297 295 297 297 303 301 302 303 301 306 305 301 303 301 297 304 297 300 308 305 298 296 295 309
290 284 292 289 289 291 296 282 290 284 287 282 285 285 300 286 293 290 293 293 293 297 302 295 298 301 302 301 293 286 300 301 295 301 309 306 303 304 295 297 296 293 300
286 281 279 286 283 282 287 292 284 283 283 283 284 280 283 288 293 287 292 292 301 296 288 296 295 294 296 303 297 294 295 295 296 295 295 297 294 295 292 295 282 296 292
281 281 279 286 286 279 276 282 276 275 287 284 286 291 285 286 291 287 297 287 295 288 291 304 299 302 300 301 295 293 295 290 291 295 293 295 295 289 289 288 291 289 290
276 288 287 276 274 274 278 291 284 287 285 280 283 289 287 298 284 286 285 292 293 289 290 286 292 288 288 290 302 299 294 289 289 282 293 301 284 290 291 289 287 285 286
283 283 283 279 276 273 288 280 278 280 279 295 279 281 292 293 285 283 286 293 290 289 291 296 296 289 288 289 287 289 295 291 293 291 290 291 291 292 291 290 286 288 286
278 288 283 290 287 273 286 275 286 290 289 297 289 294 285 285 295 289 286 293 289 296 290 293 285 286 290 289 290 291 292 291 291 294 294 291 292 290 291 287 286 280 281
283 283 282 290 279 276 281 286 278 285 275 274 284 277 279 281 289 284 283 295 281 289 283 286 288 287 287 288 289 289 289 289 291 294 296 292 293 284 286 285 280 282 279
284 278 278 281 281 288 286 278 277 280 277 274 282 292 276 281 295 295 283 282 285 287 287 286 288 287 286 285 285 286 286 289 295 293 291 288 288 286 283 284 282 277 274
280 282 291 281 293 280 281 289 283 285 285 283 294 291 293 282 284 282 280 284 284 284 284 284 283 284 287 287 290 291 291 292 290 289 289 287 286 281 279 281 279 272 275
281 283 276 280 281 287 286 286 283 277 283 282 286 287 285 285 286 284 285 285 283 283 283 284 287 286 290 290 291 290 290 290 289 290 284 277 279 272 267 267 271 260 257
284 285 285 285 288 296 285 285 285 285 286 287 288 288 287 288 284 287 286 287 286 286 286 286 287 287 287 289 288 290 289 288 288 280 277 282 274 271 269 267 261 262 266